Location: Marineo
(37.9500°N, 13.4170°E)
Time: 14:58:14
(UTC+02:00)

ISS - Visible Passes

Search period start: 02 June 2020 00:00
Search period end: 12 June 2020 00:00
Orbit: 417 x 419 km, 51.6° (Epoch: 03 June)

Date Brightness Start Highest point End Pass type
(mag) Time Alt. Az. Time Alt. Az. Time Alt. Az.
02 Jun -2.3 20:51:20 10° NNW 20:54:20 29° NNE 20:57:20 10° E visible
02 Jun -2.4 22:28:08 10° WNW 22:31:01 28° SW 22:31:01 28° SW visible
03 Jun -3.3 21:40:01 10° WNW 21:43:19 53° SW 21:45:03 24° SSE visible
04 Jun -3.7 20:52:06 10° NW 20:55:28 82° NE 20:58:49 10° SE visible
05 Jun -1.5 21:41:50 10° W 21:44:04 17° SW 21:46:12 10° S visible
06 Jun -2.2 20:53:21 10° WNW 20:56:20 29° SW 20:59:17 10° SSE visible
